#datetime,building,power
2023-10-20T00:00:00,rvs,17.05
2023-10-20T00:01:00,rvs,16.31
2023-10-20T00:02:00,rvs,15.29
2023-10-20T00:03:00,rvs,15.17
2023-10-20T00:04:00,rvs,10.90
2023-10-20T00:05:00,rvs,11.25
2023-10-20T00:06:00,rvs,11.64
2023-10-20T00:07:00,rvs,11.48
2023-10-20T00:08:00,rvs,10.69
2023-10-20T00:09:00,rvs,10.48
2023-10-20T00:10:00,rvs,10.57
2023-10-20T00:11:00,rvs,10.62
2023-10-20T00:12:00,rvs,10.85
2023-10-20T00:13:00,rvs,10.58
2023-10-20T00:14:00,rvs,11.93
2023-10-20T00:15:00,rvs,12.11
2023-10-20T00:16:00,rvs,13.60
2023-10-20T00:17:00,rvs,12.23
2023-10-20T00:18:00,rvs,11.91
2023-10-20T00:19:00,rvs,11.85
2023-10-20T00:20:00,rvs,12.77
2023-10-20T00:21:00,rvs,10.33
2023-10-20T00:22:00,rvs,13.13
2023-10-20T00:23:00,rvs,14.31
2023-10-20T00:24:00,rvs,16.09
2023-10-20T00:25:00,rvs,17.69
2023-10-20T00:26:00,rvs,18.20
2023-10-20T00:27:00,rvs,17.10
2023-10-20T00:28:00,rvs,15.96
2023-10-20T00:29:00,rvs,10.80
2023-10-20T00:30:00,rvs,10.78
2023-10-20T00:31:00,rvs,11.19
2023-10-20T00:32:00,rvs,10.90
2023-10-20T00:33:00,rvs,11.18
2023-10-20T00:34:00,rvs,10.81
2023-10-20T00:35:00,rvs,13.86
2023-10-20T00:36:00,rvs,15.23
2023-10-20T00:37:00,rvs,16.38
2023-10-20T00:38:00,rvs,17.78
2023-10-20T00:39:00,rvs,35.48
2023-10-20T00:40:00,rvs,30.67
2023-10-20T00:41:00,rvs,29.20
2023-10-20T00:42:00,rvs,28.34
2023-10-20T00:43:00,rvs,27.43
2023-10-20T00:44:00,rvs,27.34
2023-10-20T00:45:00,rvs,22.17
2023-10-20T00:46:00,rvs,13.80
2023-10-20T00:47:00,rvs,14.65
2023-10-20T00:48:00,rvs,16.11
2023-10-20T00:49:00,rvs,16.48
2023-10-20T00:50:00,rvs,15.45
2023-10-20T00:51:00,rvs,18.09
2023-10-20T00:52:00,rvs,20.04
2023-10-20T00:53:00,rvs,26.50
2023-10-20T00:54:00,rvs,33.93
2023-10-20T00:55:00,rvs,35.12
2023-10-20T00:56:00,rvs,23.18
2023-10-20T00:57:00,rvs,22.20
2023-10-20T00:58:00,rvs,23.66
2023-10-20T00:59:00,rvs,22.38
2023-10-20T01:00:00,rvs,16.35
2023-10-20T01:01:00,rvs,15.93
2023-10-20T01:02:00,rvs,15.77
2023-10-20T01:03:00,rvs,15.14
2023-10-20T01:04:00,rvs,19.08
2023-10-20T01:05:00,rvs,20.47
2023-10-20T01:06:00,rvs,26.44
2023-10-20T01:07:00,rvs,27.50
2023-10-20T01:08:00,rvs,28.19
2023-10-20T01:09:00,rvs,26.54
2023-10-20T01:10:00,rvs,25.96
2023-10-20T01:11:00,rvs,24.99
2023-10-20T01:12:00,rvs,26.89
2023-10-20T01:13:00,rvs,26.35
2023-10-20T01:14:00,rvs,24.56
2023-10-20T01:15:00,rvs,19.33
2023-10-20T01:16:00,rvs,14.69
2023-10-20T01:17:00,rvs,9.69
2023-10-20T01:18:00,rvs,9.53
2023-10-20T01:19:00,rvs,9.47
2023-10-20T01:20:00,rvs,9.96
2023-10-20T01:21:00,rvs,9.99
2023-10-20T01:22:00,rvs,13.69
2023-10-20T01:23:00,rvs,15.08
2023-10-20T01:24:00,rvs,16.34
2023-10-20T01:25:00,rvs,14.81
2023-10-20T01:26:00,rvs,15.70
2023-10-20T01:27:00,rvs,15.14
2023-10-20T01:28:00,rvs,15.11
2023-10-20T01:29:00,rvs,14.62
2023-10-20T01:30:00,rvs,16.48
2023-10-20T01:31:00,rvs,17.29
2023-10-20T01:32:00,rvs,10.34
2023-10-20T01:33:00,rvs,11.00
2023-10-20T01:34:00,rvs,10.26
2023-10-20T01:35:00,rvs,9.84
2023-10-20T01:36:00,rvs,9.58
2023-10-20T01:37:00,rvs,9.69
2023-10-20T01:38:00,rvs,12.54
2023-10-20T01:39:00,rvs,14.26
2023-10-20T01:40:00,rvs,15.44
2023-10-20T01:41:00,rvs,15.05
2023-10-20T01:42:00,rvs,14.81
2023-10-20T01:43:00,rvs,14.80
2023-10-20T01:44:00,rvs,14.70
2023-10-20T01:45:00,rvs,14.47
2023-10-20T01:46:00,rvs,13.89
2023-10-20T01:47:00,rvs,9.48
2023-10-20T01:48:00,rvs,9.12
2023-10-20T01:49:00,rvs,9.25
2023-10-20T01:50:00,rvs,9.03
2023-10-20T01:51:00,rvs,8.91
2023-10-20T01:52:00,rvs,8.24
2023-10-20T01:53:00,rvs,11.94
2023-10-20T01:54:00,rvs,13.47
2023-10-20T01:55:00,rvs,14.73
2023-10-20T01:56:00,rvs,14.09
2023-10-20T01:57:00,rvs,13.68
2023-10-20T01:58:00,rvs,13.14
2023-10-20T01:59:00,rvs,12.83
2023-10-20T02:00:00,rvs,13.94
2023-10-20T02:01:00,rvs,8.50
2023-10-20T02:02:00,rvs,8.56
2023-10-20T02:03:00,rvs,8.65
2023-10-20T02:04:00,rvs,8.62
2023-10-20T02:05:00,rvs,8.56
2023-10-20T02:06:00,rvs,8.79
2023-10-20T02:07:00,rvs,11.34
2023-10-20T02:08:00,rvs,12.89
2023-10-20T02:09:00,rvs,14.87
2023-10-20T02:10:00,rvs,18.61
2023-10-20T02:11:00,rvs,19.78
2023-10-20T02:12:00,rvs,19.90
2023-10-20T02:13:00,rvs,19.77
2023-10-20T02:14:00,rvs,18.87
2023-10-20T02:15:00,rvs,17.87
2023-10-20T02:16:00,rvs,17.63
2023-10-20T02:17:00,rvs,13.44
2023-10-20T02:18:00,rvs,13.25
2023-10-20T02:19:00,rvs,12.70
2023-10-20T02:20:00,rvs,16.70
2023-10-20T02:21:00,rvs,18.39
2023-10-20T02:22:00,rvs,19.69
2023-10-20T02:23:00,rvs,19.34
2023-10-20T02:24:00,rvs,20.14
2023-10-20T02:25:00,rvs,22.06
2023-10-20T02:26:00,rvs,19.13
2023-10-20T02:27:00,rvs,19.05
2023-10-20T02:28:00,rvs,19.17
2023-10-20T02:29:00,rvs,18.50
2023-10-20T02:30:00,rvs,20.30
2023-10-20T02:31:00,rvs,14.57
2023-10-20T02:32:00,rvs,14.52
2023-10-20T02:33:00,rvs,16.34
2023-10-20T02:34:00,rvs,18.19
2023-10-20T02:35:00,rvs,16.06
2023-10-20T02:36:00,rvs,14.15
2023-10-20T02:37:00,rvs,12.02
2023-10-20T02:38:00,rvs,15.12
2023-10-20T02:39:00,rvs,17.04
2023-10-20T02:40:00,rvs,15.21
2023-10-20T02:41:00,rvs,15.65
2023-10-20T02:42:00,rvs,14.20
2023-10-20T02:43:00,rvs,13.90
2023-10-20T02:44:00,rvs,13.96
2023-10-20T02:45:00,rvs,13.25
2023-10-20T02:46:00,rvs,13.41
2023-10-20T02:47:00,rvs,8.82
2023-10-20T02:48:00,rvs,8.84
2023-10-20T02:49:00,rvs,8.88
2023-10-20T02:50:00,rvs,8.33
2023-10-20T02:51:00,rvs,8.41
2023-10-20T02:52:00,rvs,8.34
2023-10-20T02:53:00,rvs,11.80
2023-10-20T02:54:00,rvs,12.91
2023-10-20T02:55:00,rvs,16.09
2023-10-20T02:56:00,rvs,13.47
2023-10-20T02:57:00,rvs,13.72
2023-10-20T02:58:00,rvs,11.86
2023-10-20T02:59:00,rvs,17.80
2023-10-20T03:00:00,rvs,18.89
2023-10-20T03:01:00,rvs,12.90
2023-10-20T03:02:00,rvs,8.19
2023-10-20T03:03:00,rvs,8.21
2023-10-20T03:04:00,rvs,8.14
2023-10-20T03:05:00,rvs,8.23
2023-10-20T03:06:00,rvs,8.23
2023-10-20T03:07:00,rvs,11.60
2023-10-20T03:08:00,rvs,12.99
2023-10-20T03:09:00,rvs,14.81
2023-10-20T03:10:00,rvs,14.58
2023-10-20T03:11:00,rvs,14.54
2023-10-20T03:12:00,rvs,13.50
2023-10-20T03:13:00,rvs,13.50
2023-10-20T03:14:00,rvs,8.41
2023-10-20T03:15:00,rvs,8.47
2023-10-20T03:16:00,rvs,21.64
2023-10-20T03:17:00,rvs,21.60
2023-10-20T03:18:00,rvs,21.26
2023-10-20T03:19:00,rvs,8.28
2023-10-20T03:20:00,rvs,8.36
2023-10-20T03:21:00,rvs,8.20
2023-10-20T03:22:00,rvs,8.22
2023-10-20T03:23:00,rvs,8.90
2023-10-20T03:24:00,rvs,8.88
2023-10-20T03:25:00,rvs,8.91
2023-10-20T03:26:00,rvs,8.98
2023-10-20T03:27:00,rvs,8.88
2023-10-20T03:28:00,rvs,8.89
2023-10-20T03:29:00,rvs,9.32
2023-10-20T03:30:00,rvs,9.13
2023-10-20T03:31:00,rvs,9.09
2023-10-20T03:32:00,rvs,9.11
2023-10-20T03:33:00,rvs,9.28
2023-10-20T03:34:00,rvs,9.67
2023-10-20T03:35:00,rvs,9.55
2023-10-20T03:36:00,rvs,9.25
2023-10-20T03:37:00,rvs,8.86
2023-10-20T03:38:00,rvs,8.94
2023-10-20T03:39:00,rvs,8.35
2023-10-20T03:40:00,rvs,8.78
2023-10-20T03:41:00,rvs,8.97
2023-10-20T03:42:00,rvs,8.91
2023-10-20T03:43:00,rvs,8.30
2023-10-20T03:44:00,rvs,8.33
2023-10-20T03:45:00,rvs,8.08
2023-10-20T03:46:00,rvs,8.04
2023-10-20T03:47:00,rvs,8.63
2023-10-20T03:48:00,rvs,11.72
2023-10-20T03:49:00,rvs,12.91
2023-10-20T03:50:00,rvs,14.25
2023-10-20T03:51:00,rvs,14.63
2023-10-20T03:52:00,rvs,13.88
2023-10-20T03:53:00,rvs,13.09
2023-10-20T03:54:00,rvs,12.57
2023-10-20T03:55:00,rvs,12.53
2023-10-20T03:56:00,rvs,12.34
2023-10-20T03:57:00,rvs,12.25
2023-10-20T03:58:00,rvs,12.47
2023-10-20T03:59:00,rvs,13.03
2023-10-20T04:00:00,rvs,11.03
2023-10-20T04:01:00,rvs,12.70
2023-10-20T04:02:00,rvs,7.79
2023-10-20T04:03:00,rvs,7.92
2023-10-20T04:04:00,rvs,7.68
2023-10-20T04:05:00,rvs,8.32
2023-10-20T04:06:00,rvs,8.98
2023-10-20T04:07:00,rvs,8.34
2023-10-20T04:08:00,rvs,7.86
2023-10-20T04:09:00,rvs,8.16
2023-10-20T04:10:00,rvs,8.14
2023-10-20T04:11:00,rvs,8.12
2023-10-20T04:12:00,rvs,7.88
2023-10-20T04:13:00,rvs,7.95
2023-10-20T04:14:00,rvs,7.90
2023-10-20T04:15:00,rvs,8.01
2023-10-20T04:16:00,rvs,8.01
2023-10-20T04:17:00,rvs,8.03
2023-10-20T04:18:00,rvs,7.90
2023-10-20T04:19:00,rvs,7.75
2023-10-20T04:20:00,rvs,7.77
2023-10-20T04:21:00,rvs,7.78
2023-10-20T04:22:00,rvs,7.81
2023-10-20T04:23:00,rvs,8.15
2023-10-20T04:24:00,rvs,8.83
2023-10-20T04:25:00,rvs,8.19
2023-10-20T04:26:00,rvs,8.29
2023-10-20T04:27:00,rvs,8.07
2023-10-20T04:28:00,rvs,8.11
2023-10-20T04:29:00,rvs,8.04
2023-10-20T04:30:00,rvs,8.22
2023-10-20T04:31:00,rvs,8.63
2023-10-20T04:32:00,rvs,8.57
2023-10-20T04:33:00,rvs,8.56
2023-10-20T04:34:00,rvs,8.48
2023-10-20T04:35:00,rvs,8.46
2023-10-20T04:36:00,rvs,8.57
2023-10-20T04:37:00,rvs,8.51
2023-10-20T04:38:00,rvs,8.49
2023-10-20T04:39:00,rvs,8.60
2023-10-20T04:40:00,rvs,8.74
2023-10-20T04:41:00,rvs,8.50
2023-10-20T04:42:00,rvs,7.54
2023-10-20T04:43:00,rvs,7.44
2023-10-20T04:44:00,rvs,7.36
2023-10-20T04:45:00,rvs,7.61
2023-10-20T04:46:00,rvs,7.53
2023-10-20T04:47:00,rvs,7.84
2023-10-20T04:48:00,rvs,7.86
2023-10-20T04:49:00,rvs,7.84
2023-10-20T04:50:00,rvs,7.71
2023-10-20T04:51:00,rvs,7.73
2023-10-20T04:52:00,rvs,7.52
2023-10-20T04:53:00,rvs,7.55
2023-10-20T04:54:00,rvs,7.54
2023-10-20T04:55:00,rvs,7.63
2023-10-20T04:56:00,rvs,7.78
2023-10-20T04:57:00,rvs,7.65
2023-10-20T04:58:00,rvs,7.65
2023-10-20T04:59:00,rvs,8.18
2023-10-20T05:00:00,rvs,8.06
2023-10-20T05:01:00,rvs,7.65
2023-10-20T05:02:00,rvs,7.34
2023-10-20T05:03:00,rvs,10.08
2023-10-20T05:04:00,rvs,11.20
2023-10-20T05:05:00,rvs,12.63
2023-10-20T05:06:00,rvs,13.77
2023-10-20T05:07:00,rvs,14.50
2023-10-20T05:08:00,rvs,13.40
2023-10-20T05:09:00,rvs,11.68
2023-10-20T05:10:00,rvs,11.81
2023-10-20T05:11:00,rvs,11.83
2023-10-20T05:12:00,rvs,12.05
2023-10-20T05:13:00,rvs,12.34
2023-10-20T05:14:00,rvs,12.12
2023-10-20T05:15:00,rvs,11.64
2023-10-20T05:16:00,rvs,12.15
2023-10-20T05:17:00,rvs,12.22
2023-10-20T05:18:00,rvs,12.27
2023-10-20T05:19:00,rvs,7.82
2023-10-20T05:20:00,rvs,7.80
2023-10-20T05:21:00,rvs,7.73
2023-10-20T05:22:00,rvs,7.84
2023-10-20T05:23:00,rvs,7.85
2023-10-20T05:24:00,rvs,7.96
2023-10-20T05:25:00,rvs,8.04
2023-10-20T05:26:00,rvs,8.37
2023-10-20T05:27:00,rvs,9.17
2023-10-20T05:28:00,rvs,9.01
2023-10-20T05:29:00,rvs,8.49
2023-10-20T05:30:00,rvs,8.52
2023-10-20T05:31:00,rvs,8.47
2023-10-20T05:32:00,rvs,8.66
2023-10-20T05:33:00,rvs,9.23
2023-10-20T05:34:00,rvs,21.91
2023-10-20T05:35:00,rvs,21.78
2023-10-20T05:36:00,rvs,21.31
2023-10-20T05:37:00,rvs,20.64
2023-10-20T05:38:00,rvs,7.42
2023-10-20T05:39:00,rvs,7.55
2023-10-20T05:40:00,rvs,7.68
2023-10-20T05:41:00,rvs,7.59
2023-10-20T05:42:00,rvs,7.54
2023-10-20T05:43:00,rvs,7.62
2023-10-20T05:44:00,rvs,7.48
2023-10-20T05:45:00,rvs,7.73
2023-10-20T05:46:00,rvs,8.06
2023-10-20T05:47:00,rvs,12.05
2023-10-20T05:48:00,rvs,11.95
2023-10-20T05:49:00,rvs,12.03
2023-10-20T05:50:00,rvs,11.92
2023-10-20T05:51:00,rvs,7.86
2023-10-20T05:52:00,rvs,7.87
2023-10-20T05:53:00,rvs,7.90
2023-10-20T05:54:00,rvs,7.56
2023-10-20T05:55:00,rvs,7.57
2023-10-20T05:56:00,rvs,7.58
2023-10-20T05:57:00,rvs,7.54
2023-10-20T05:58:00,rvs,7.55
2023-10-20T05:59:00,rvs,7.56
2023-10-20T06:00:00,rvs,7.73
2023-10-20T06:01:00,rvs,7.87
2023-10-20T06:02:00,rvs,7.84
2023-10-20T06:03:00,rvs,7.76
2023-10-20T06:04:00,rvs,7.58
2023-10-20T06:05:00,rvs,7.52
2023-10-20T06:06:00,rvs,7.44
2023-10-20T06:07:00,rvs,7.44
2023-10-20T06:08:00,rvs,7.45
2023-10-20T06:09:00,rvs,7.36
2023-10-20T06:10:00,rvs,7.34
2023-10-20T06:11:00,rvs,7.12
2023-10-20T06:12:00,rvs,7.22
2023-10-20T06:13:00,rvs,7.33
2023-10-20T06:14:00,rvs,7.72
2023-10-20T06:15:00,rvs,7.65
2023-10-20T06:16:00,rvs,7.64
2023-10-20T06:17:00,rvs,10.77
2023-10-20T06:18:00,rvs,12.16
2023-10-20T06:19:00,rvs,14.46
2023-10-20T06:20:00,rvs,18.62
2023-10-20T06:21:00,rvs,20.13
2023-10-20T06:22:00,rvs,19.86
2023-10-20T06:23:00,rvs,19.16
2023-10-20T06:24:00,rvs,18.37
2023-10-20T06:25:00,rvs,18.06
2023-10-20T06:26:00,rvs,17.85
2023-10-20T06:27:00,rvs,18.11
2023-10-20T06:28:00,rvs,17.76
2023-10-20T06:29:00,rvs,17.82
2023-10-20T06:30:00,rvs,18.34
2023-10-20T06:31:00,rvs,17.93
2023-10-20T06:32:00,rvs,13.45
2023-10-20T06:33:00,rvs,13.87
2023-10-20T06:34:00,rvs,14.06
2023-10-20T06:35:00,rvs,13.43
2023-10-20T06:36:00,rvs,7.96
2023-10-20T06:37:00,rvs,7.86
2023-10-20T06:38:00,rvs,7.79
2023-10-20T06:39:00,rvs,7.93
2023-10-20T06:40:00,rvs,8.22
2023-10-20T06:41:00,rvs,8.27
2023-10-20T06:42:00,rvs,8.43
2023-10-20T06:43:00,rvs,8.61
2023-10-20T06:44:00,rvs,8.73
2023-10-20T06:45:00,rvs,8.97
2023-10-20T06:46:00,rvs,8.41
2023-10-20T06:47:00,rvs,8.37
2023-10-20T06:48:00,rvs,8.44
2023-10-20T06:49:00,rvs,8.79
2023-10-20T06:50:00,rvs,8.83
2023-10-20T06:51:00,rvs,8.35
2023-10-20T06:52:00,rvs,8.72
2023-10-20T06:53:00,rvs,8.29
2023-10-20T06:54:00,rvs,8.02
2023-10-20T06:55:00,rvs,8.06
2023-10-20T06:56:00,rvs,7.96
2023-10-20T06:57:00,rvs,7.98
2023-10-20T06:58:00,rvs,8.22
2023-10-20T06:59:00,rvs,8.10
2023-10-20T07:00:00,rvs,7.91
2023-10-20T07:01:00,rvs,7.88
2023-10-20T07:02:00,rvs,7.75
2023-10-20T07:03:00,rvs,7.74
2023-10-20T07:04:00,rvs,7.84
2023-10-20T07:05:00,rvs,7.73
2023-10-20T07:06:00,rvs,7.72
2023-10-20T07:07:00,rvs,8.64
2023-10-20T07:08:00,rvs,11.76
2023-10-20T07:09:00,rvs,13.60
2023-10-20T07:10:00,rvs,14.42
2023-10-20T07:11:00,rvs,14.90
2023-10-20T07:12:00,rvs,13.31
2023-10-20T07:13:00,rvs,12.77
2023-10-20T07:14:00,rvs,12.87
2023-10-20T07:15:00,rvs,13.09
2023-10-20T07:16:00,rvs,14.66
2023-10-20T07:17:00,rvs,17.59
2023-10-20T07:18:00,rvs,18.43
2023-10-20T07:19:00,rvs,20.41
2023-10-20T07:20:00,rvs,21.06
2023-10-20T07:21:00,rvs,20.29
2023-10-20T07:22:00,rvs,20.93
2023-10-20T07:23:00,rvs,14.44
2023-10-20T07:24:00,rvs,16.78
2023-10-20T07:25:00,rvs,16.41
2023-10-20T07:26:00,rvs,15.32
2023-10-20T07:27:00,rvs,14.67
2023-10-20T07:28:00,rvs,14.53
2023-10-20T07:29:00,rvs,14.83
2023-10-20T07:30:00,rvs,14.30
2023-10-20T07:31:00,rvs,15.92
2023-10-20T07:32:00,rvs,15.19
2023-10-20T07:33:00,rvs,15.10
2023-10-20T07:34:00,rvs,15.35
2023-10-20T07:35:00,rvs,15.31
2023-10-20T07:36:00,rvs,9.33
2023-10-20T07:37:00,rvs,9.35
2023-10-20T07:38:00,rvs,9.36
2023-10-20T07:39:00,rvs,9.81
2023-10-20T07:40:00,rvs,10.12
2023-10-20T07:41:00,rvs,9.37
2023-10-20T07:42:00,rvs,9.30
2023-10-20T07:43:00,rvs,9.00
2023-10-20T07:44:00,rvs,9.07
2023-10-20T07:45:00,rvs,9.13
2023-10-20T07:46:00,rvs,9.27
2023-10-20T07:47:00,rvs,9.26
2023-10-20T07:48:00,rvs,9.30
2023-10-20T07:49:00,rvs,9.31
2023-10-20T07:50:00,rvs,9.74
2023-10-20T07:51:00,rvs,9.00
2023-10-20T07:52:00,rvs,8.68
2023-10-20T07:53:00,rvs,21.51
2023-10-20T07:54:00,rvs,25.11
2023-10-20T07:55:00,rvs,25.96
2023-10-20T07:56:00,rvs,13.95
2023-10-20T07:57:00,rvs,13.79
2023-10-20T07:58:00,rvs,13.78
2023-10-20T07:59:00,rvs,12.32
2023-10-20T08:00:00,rvs,12.72
2023-10-20T08:01:00,rvs,13.03
2023-10-20T08:02:00,rvs,31.48
2023-10-20T08:03:00,rvs,12.73
2023-10-20T08:04:00,rvs,12.96
2023-10-20T08:05:00,rvs,13.71
2023-10-20T08:06:00,rvs,14.99
2023-10-20T08:07:00,rvs,8.07
2023-10-20T08:08:00,rvs,8.56
2023-10-20T08:09:00,rvs,8.75
2023-10-20T08:10:00,rvs,8.33
2023-10-20T08:11:00,rvs,9.47
2023-10-20T08:12:00,rvs,10.05
2023-10-20T08:13:00,rvs,10.09
2023-10-20T08:14:00,rvs,10.56
2023-10-20T08:15:00,rvs,14.91
2023-10-20T08:16:00,rvs,21.63
2023-10-20T08:17:00,rvs,19.79
2023-10-20T08:18:00,rvs,18.46
2023-10-20T08:19:00,rvs,12.47
2023-10-20T08:20:00,rvs,12.50
2023-10-20T08:21:00,rvs,13.82
2023-10-20T08:22:00,rvs,12.32
2023-10-20T08:23:00,rvs,7.73
2023-10-20T08:24:00,rvs,7.71
2023-10-20T08:25:00,rvs,7.83
2023-10-20T08:26:00,rvs,7.80
2023-10-20T08:27:00,rvs,7.77
2023-10-20T08:28:00,rvs,9.77
2023-10-20T08:29:00,rvs,19.59
2023-10-20T08:30:00,rvs,19.95
2023-10-20T08:31:00,rvs,20.72
2023-10-20T08:32:00,rvs,24.12
2023-10-20T08:33:00,rvs,23.15
2023-10-20T08:34:00,rvs,22.33
2023-10-20T08:35:00,rvs,22.37
2023-10-20T08:36:00,rvs,15.89
2023-10-20T08:37:00,rvs,16.12
2023-10-20T08:38:00,rvs,16.54
2023-10-20T08:39:00,rvs,16.74
2023-10-20T08:40:00,rvs,13.35
2023-10-20T08:41:00,rvs,13.37
2023-10-20T08:42:00,rvs,14.29
2023-10-20T08:43:00,rvs,13.70
2023-10-20T08:44:00,rvs,13.28
2023-10-20T08:45:00,rvs,15.24
2023-10-20T08:46:00,rvs,15.75
2023-10-20T08:47:00,rvs,15.68
2023-10-20T08:48:00,rvs,15.42
2023-10-20T08:49:00,rvs,15.05
2023-10-20T08:50:00,rvs,15.29
2023-10-20T08:51:00,rvs,15.05
2023-10-20T08:52:00,rvs,15.47
2023-10-20T08:53:00,rvs,15.78
2023-10-20T08:54:00,rvs,16.07
2023-10-20T08:55:00,rvs,16.36
2023-10-20T08:56:00,rvs,15.92
2023-10-20T08:57:00,rvs,8.47
2023-10-20T08:58:00,rvs,8.42
2023-10-20T08:59:00,rvs,8.51
2023-10-20T09:00:00,rvs,9.33
2023-10-20T09:01:00,rvs,9.30
2023-10-20T09:02:00,rvs,9.60
2023-10-20T09:03:00,rvs,12.95
2023-10-20T09:04:00,rvs,14.49
2023-10-20T09:05:00,rvs,15.53
2023-10-20T09:06:00,rvs,16.00
2023-10-20T09:07:00,rvs,14.45
2023-10-20T09:08:00,rvs,14.85
2023-10-20T09:09:00,rvs,16.93
2023-10-20T09:10:00,rvs,15.83
2023-10-20T09:11:00,rvs,15.51
2023-10-20T09:12:00,rvs,15.31
2023-10-20T09:13:00,rvs,9.60
2023-10-20T09:14:00,rvs,9.95
2023-10-20T09:15:00,rvs,9.89
2023-10-20T09:16:00,rvs,12.91
2023-10-20T09:17:00,rvs,13.34
2023-10-20T09:18:00,rvs,15.08
2023-10-20T09:19:00,rvs,15.96
2023-10-20T09:20:00,rvs,15.37
2023-10-20T09:21:00,rvs,14.16
2023-10-20T09:22:00,rvs,14.38
2023-10-20T09:23:00,rvs,14.09
2023-10-20T09:24:00,rvs,13.39
2023-10-20T09:25:00,rvs,27.24
2023-10-20T09:26:00,rvs,21.83
2023-10-20T09:27:00,rvs,22.32
2023-10-20T09:28:00,rvs,22.19
2023-10-20T09:29:00,rvs,9.56
2023-10-20T09:30:00,rvs,11.27
2023-10-20T09:31:00,rvs,11.81
2023-10-20T09:32:00,rvs,12.00
2023-10-20T09:33:00,rvs,12.02
2023-10-20T09:34:00,rvs,11.86
2023-10-20T09:35:00,rvs,11.88
2023-10-20T09:36:00,rvs,12.00
2023-10-20T09:37:00,rvs,11.74
2023-10-20T09:38:00,rvs,11.68
2023-10-20T09:39:00,rvs,11.59
2023-10-20T09:40:00,rvs,10.95
2023-10-20T09:41:00,rvs,10.94
2023-10-20T09:42:00,rvs,10.98
2023-10-20T09:43:00,rvs,9.73
2023-10-20T09:44:00,rvs,10.02
2023-10-20T09:45:00,rvs,10.47
2023-10-20T09:46:00,rvs,10.60
2023-10-20T09:47:00,rvs,10.11
2023-10-20T09:48:00,rvs,9.70
2023-10-20T09:49:00,rvs,9.73
2023-10-20T09:50:00,rvs,10.14
2023-10-20T09:51:00,rvs,10.26
2023-10-20T09:52:00,rvs,10.06
2023-10-20T09:53:00,rvs,9.90
2023-10-20T09:54:00,rvs,9.78
2023-10-20T09:55:00,rvs,10.36
2023-10-20T09:56:00,rvs,10.42
2023-10-20T09:57:00,rvs,10.17
2023-10-20T09:58:00,rvs,10.31
2023-10-20T09:59:00,rvs,10.29
2023-10-20T10:00:00,rvs,10.28
2023-10-20T10:01:00,rvs,10.45
2023-10-20T10:02:00,rvs,10.66
2023-10-20T10:03:00,rvs,10.27
2023-10-20T10:04:00,rvs,10.38
2023-10-20T10:05:00,rvs,10.67
2023-10-20T10:06:00,rvs,10.98
2023-10-20T10:07:00,rvs,10.72
2023-10-20T10:08:00,rvs,10.42
2023-10-20T10:09:00,rvs,10.69
2023-10-20T10:10:00,rvs,10.66
2023-10-20T10:11:00,rvs,9.88
2023-10-20T10:12:00,rvs,9.62
2023-10-20T10:13:00,rvs,10.01
2023-10-20T10:14:00,rvs,9.82
2023-10-20T10:15:00,rvs,10.05
2023-10-20T10:16:00,rvs,9.78
2023-10-20T10:17:00,rvs,9.76
2023-10-20T10:18:00,rvs,9.75
2023-10-20T10:19:00,rvs,9.99
2023-10-20T10:20:00,rvs,10.34
2023-10-20T10:21:00,rvs,10.22
2023-10-20T10:22:00,rvs,12.16
2023-10-20T10:23:00,rvs,11.03
2023-10-20T10:24:00,rvs,10.59
2023-10-20T10:25:00,rvs,9.99
2023-10-20T10:26:00,rvs,10.11
2023-10-20T10:27:00,rvs,10.21
2023-10-20T10:28:00,rvs,9.89
2023-10-20T10:29:00,rvs,9.84
2023-10-20T10:30:00,rvs,14.12
2023-10-20T10:31:00,rvs,14.09
2023-10-20T10:32:00,rvs,14.26
2023-10-20T10:33:00,rvs,14.40
2023-10-20T10:34:00,rvs,14.36
2023-10-20T10:35:00,rvs,13.79
2023-10-20T10:36:00,rvs,13.92
2023-10-20T10:37:00,rvs,13.61
2023-10-20T10:38:00,rvs,13.56
2023-10-20T10:39:00,rvs,13.71
2023-10-20T10:40:00,rvs,13.78
2023-10-20T10:41:00,rvs,14.27
2023-10-20T10:42:00,rvs,14.00
2023-10-20T10:43:00,rvs,13.88
2023-10-20T10:44:00,rvs,13.66
2023-10-20T10:45:00,rvs,15.52
2023-10-20T10:46:00,rvs,14.38
2023-10-20T10:47:00,rvs,14.18
2023-10-20T10:48:00,rvs,14.35
2023-10-20T10:49:00,rvs,14.98
2023-10-20T10:50:00,rvs,14.93
2023-10-20T10:51:00,rvs,14.07
2023-10-20T10:52:00,rvs,13.76
2023-10-20T10:53:00,rvs,15.24
2023-10-20T10:54:00,rvs,13.78
2023-10-20T10:55:00,rvs,13.87
2023-10-20T10:56:00,rvs,13.63
2023-10-20T10:57:00,rvs,13.62
2023-10-20T10:58:00,rvs,14.02
2023-10-20T10:59:00,rvs,14.02
2023-10-20T11:00:00,rvs,17.26
2023-10-20T11:01:00,rvs,17.77
2023-10-20T11:02:00,rvs,18.40
2023-10-20T11:03:00,rvs,19.05
2023-10-20T11:04:00,rvs,18.82
2023-10-20T11:05:00,rvs,17.68
2023-10-20T11:06:00,rvs,18.45
2023-10-20T11:07:00,rvs,24.21
2023-10-20T11:08:00,rvs,23.84
2023-10-20T11:09:00,rvs,29.52
2023-10-20T11:10:00,rvs,22.64
2023-10-20T11:11:00,rvs,24.14
2023-10-20T11:12:00,rvs,31.66
2023-10-20T11:13:00,rvs,23.17
2023-10-20T11:14:00,rvs,18.07
2023-10-20T11:15:00,rvs,14.17
2023-10-20T11:16:00,rvs,14.05
2023-10-20T11:17:00,rvs,14.02
2023-10-20T11:18:00,rvs,14.08
2023-10-20T11:19:00,rvs,14.13
2023-10-20T11:20:00,rvs,14.01
2023-10-20T11:21:00,rvs,14.20
2023-10-20T11:22:00,rvs,18.37
2023-10-20T11:23:00,rvs,18.30
2023-10-20T11:24:00,rvs,14.42
2023-10-20T11:25:00,rvs,14.80
2023-10-20T11:26:00,rvs,15.53
2023-10-20T11:27:00,rvs,18.16
2023-10-20T11:28:00,rvs,19.68
2023-10-20T11:29:00,rvs,38.58
2023-10-20T11:30:00,rvs,20.52
2023-10-20T11:31:00,rvs,20.18
2023-10-20T11:32:00,rvs,19.86
2023-10-20T11:33:00,rvs,42.41
2023-10-20T11:34:00,rvs,23.61
2023-10-20T11:35:00,rvs,18.56
2023-10-20T11:36:00,rvs,18.76
2023-10-20T11:37:00,rvs,18.29
2023-10-20T11:38:00,rvs,17.69
2023-10-20T11:39:00,rvs,17.59
2023-10-20T11:40:00,rvs,17.58
2023-10-20T11:41:00,rvs,18.21
2023-10-20T11:42:00,rvs,17.56
2023-10-20T11:43:00,rvs,18.91
2023-10-20T11:44:00,rvs,18.87
2023-10-20T11:45:00,rvs,18.72
2023-10-20T11:46:00,rvs,17.68
2023-10-20T11:47:00,rvs,34.85
2023-10-20T11:48:00,rvs,17.52
2023-10-20T11:49:00,rvs,17.54
2023-10-20T11:50:00,rvs,18.52
2023-10-20T11:51:00,rvs,19.50
2023-10-20T11:52:00,rvs,19.74
2023-10-20T11:53:00,rvs,21.78
2023-10-20T11:54:00,rvs,22.19
2023-10-20T11:55:00,rvs,18.57
2023-10-20T11:56:00,rvs,19.55
2023-10-20T11:57:00,rvs,19.63
2023-10-20T11:58:00,rvs,18.69
2023-10-20T11:59:00,rvs,14.02
2023-10-20T12:00:00,rvs,13.31
2023-10-20T12:01:00,rvs,9.38
2023-10-20T12:02:00,rvs,9.34
2023-10-20T12:03:00,rvs,9.41
2023-10-20T12:04:00,rvs,13.51
2023-10-20T12:05:00,rvs,13.35
2023-10-20T12:06:00,rvs,17.18
2023-10-20T12:07:00,rvs,9.27
2023-10-20T12:08:00,rvs,9.13
2023-10-20T12:09:00,rvs,9.09
2023-10-20T12:10:00,rvs,9.01
2023-10-20T12:11:00,rvs,13.01
2023-10-20T12:12:00,rvs,12.80
2023-10-20T12:13:00,rvs,16.50
2023-10-20T12:14:00,rvs,26.94
2023-10-20T12:15:00,rvs,28.59
2023-10-20T12:16:00,rvs,29.40
2023-10-20T12:17:00,rvs,28.64
2023-10-20T12:18:00,rvs,15.59
2023-10-20T12:19:00,rvs,15.20
2023-10-20T12:20:00,rvs,14.70
2023-10-20T12:21:00,rvs,13.72
2023-10-20T12:22:00,rvs,9.52
2023-10-20T12:23:00,rvs,9.55
2023-10-20T12:24:00,rvs,8.64
2023-10-20T12:25:00,rvs,12.80
2023-10-20T12:26:00,rvs,12.61
2023-10-20T12:27:00,rvs,9.07
2023-10-20T12:28:00,rvs,13.04
2023-10-20T12:29:00,rvs,13.78
2023-10-20T12:30:00,rvs,15.31
2023-10-20T12:31:00,rvs,14.85
2023-10-20T12:32:00,rvs,13.91
2023-10-20T12:33:00,rvs,13.77
2023-10-20T12:34:00,rvs,13.37
2023-10-20T12:35:00,rvs,12.76
2023-10-20T12:36:00,rvs,9.09
2023-10-20T12:37:00,rvs,8.79
2023-10-20T12:38:00,rvs,9.27
2023-10-20T12:39:00,rvs,9.03
2023-10-20T12:40:00,rvs,9.04
2023-10-20T12:41:00,rvs,9.37
2023-10-20T12:42:00,rvs,8.99
2023-10-20T12:43:00,rvs,8.95
2023-10-20T12:44:00,rvs,9.46
2023-10-20T12:45:00,rvs,12.46
2023-10-20T12:46:00,rvs,14.41
2023-10-20T12:47:00,rvs,14.73
2023-10-20T12:48:00,rvs,13.89
2023-10-20T12:49:00,rvs,13.60
2023-10-20T12:50:00,rvs,13.50
2023-10-20T12:51:00,rvs,12.90
2023-10-20T12:52:00,rvs,8.74
2023-10-20T12:53:00,rvs,8.48
2023-10-20T12:54:00,rvs,9.47
2023-10-20T12:55:00,rvs,9.29
2023-10-20T12:56:00,rvs,10.10
2023-10-20T12:57:00,rvs,10.19
2023-10-20T12:58:00,rvs,10.14
2023-10-20T12:59:00,rvs,10.18
2023-10-20T13:00:00,rvs,9.72
2023-10-20T13:01:00,rvs,8.93
2023-10-20T13:02:00,rvs,8.85
2023-10-20T13:03:00,rvs,8.95
2023-10-20T13:04:00,rvs,9.05
2023-10-20T13:05:00,rvs,9.18
2023-10-20T13:06:00,rvs,9.33
2023-10-20T13:07:00,rvs,9.50
2023-10-20T13:08:00,rvs,17.57
2023-10-20T13:09:00,rvs,17.73
2023-10-20T13:10:00,rvs,33.77
2023-10-20T13:11:00,rvs,17.27
2023-10-20T13:12:00,rvs,17.08
2023-10-20T13:13:00,rvs,16.69
2023-10-20T13:14:00,rvs,16.68
2023-10-20T13:15:00,rvs,21.11
2023-10-20T13:16:00,rvs,21.88
2023-10-20T13:17:00,rvs,22.13
2023-10-20T13:18:00,rvs,22.07
2023-10-20T13:19:00,rvs,22.63
2023-10-20T13:20:00,rvs,40.78
2023-10-20T13:21:00,rvs,22.37
2023-10-20T13:22:00,rvs,22.29
2023-10-20T13:23:00,rvs,22.17
2023-10-20T13:24:00,rvs,24.89
2023-10-20T13:25:00,rvs,21.56
2023-10-20T13:26:00,rvs,23.70
2023-10-20T13:27:00,rvs,24.91